Time,TemperatureF,DewpointF,PressureIn,WindDirection,WindDirectionDegrees,WindSpeedMPH,WindSpeedGustMPH,Humidity,HourlyPrecipIn,Conditions,Clouds,dailyrainin,SoftwareType,DateUTC
2013-05-03 00:01:00,46.6,50.2,30.09,WNW,296,4.0,8.0,41,0.17,,,0.83,meteohub,2013-05-03 05:01:00,
2013-05-03 00:06:00,46.6,50.2,30.09,North,357,3.0,8.0,41,0.17,,,0.00,meteohub,2013-05-03 05:06:00,
2013-05-03 00:11:00,46.6,50.2,30.09,NNW,340,4.0,8.0,41,0.13,,,0.00,meteohub,2013-05-03 05:11:00,
2013-05-03 00:16:00,46.4,50.0,30.09,North,349,6.0,8.0,41,0.13,,,0.00,meteohub,2013-05-03 05:16:00,
2013-05-03 00:21:00,46.2,50.0,30.09,NW,312,4.0,8.0,42,0.13,,,0.00,meteohub,2013-05-03 05:21:00,
2013-05-03 00:26:00,46.2,49.8,30.09,WNW,303,3.0,8.0,42,0.12,,,0.04,meteohub,2013-05-03 05:26:00,
2013-05-03 00:31:00,46.2,49.8,30.09,NE,43,6.0,8.0,43,0.12,,,0.04,meteohub,2013-05-03 05:31:00,
2013-05-03 00:36:00,46.0,49.8,30.09,NNW,341,5.0,8.0,43,0.12,,,0.04,meteohub,2013-05-03 05:36:00,
2013-05-03 00:42:00,46.0,49.8,30.09,NNE,25,4.0,8.0,43,0.08,,,0.04,meteohub,2013-05-03 05:42:00,
2013-05-03 00:47:00,46.2,49.6,30.09,North,0,4.0,8.0,43,0.13,,,0.08,meteohub,2013-05-03 05:47:00,
2013-05-03 00:52:00,46.0,49.6,30.06,North,0,6.0,9.0,43,0.13,,,0.08,meteohub,2013-05-03 05:52:00,
2013-05-03 00:57:00,46.0,49.6,30.06,North,0,5.0,9.0,44,0.08,,,0.08,meteohub,2013-05-03 05:57:00,
2013-05-03 01:02:00,45.9,49.6,30.06,NW,322,3.0,10.0,44,0.08,,,0.08,meteohub,2013-05-03 06:02:00,
2013-05-03 01:07:00,45.9,49.6,30.06,NNE,16,3.0,10.0,44,0.08,,,0.08,meteohub,2013-05-03 06:07:00,
2013-05-03 01:12:00,46.0,49.5,30.06,WNW,286,3.0,10.0,44,0.08,,,0.08,meteohub,2013-05-03 06:12:00,
2013-05-03 01:17:00,46.0,49.5,30.06,North,10,3.0,6.0,44,0.12,,,0.12,meteohub,2013-05-03 06:17:00,
2013-05-03 01:22:00,46.0,49.5,30.09,NNW,337,0.0,6.0,44,0.08,,,0.12,meteohub,2013-05-03 06:22:00,
2013-05-03 01:27:00,46.0,49.3,30.09,North,3,5.0,6.0,44,0.08,,,0.12,meteohub,2013-05-03 06:27:00,
2013-05-03 01:32:00,45.9,49.3,30.09,NNE,14,3.0,8.0,44,0.08,,,0.12,meteohub,2013-05-03 06:32:00,
2013-05-03 01:37:00,45.7,49.3,30.06,North,1,4.0,8.0,44,0.13,,,0.17,meteohub,2013-05-03 06:37:00,
2013-05-03 01:42:00,45.5,49.1,30.06,NNW,348,3.0,8.0,44,0.13,,,0.17,meteohub,2013-05-03 06:42:00,
2013-05-03 01:47:00,45.5,49.1,30.06,NNW,346,3.0,5.0,44,0.12,,,0.20,meteohub,2013-05-03 06:47:00,
2013-05-03 01:52:00,45.3,49.1,30.06,West,263,4.0,6.0,44,0.12,,,0.20,meteohub,2013-05-03 06:52:00,
2013-05-03 01:57:00,45.1,49.1,30.06,North,357,4.0,6.0,44,0.17,,,0.25,meteohub,2013-05-03 06:57:00,
2013-05-03 02:03:00,45.0,48.9,30.06,NW,319,3.0,6.0,44,0.17,,,0.25,meteohub,2013-05-03 07:03:00,
2013-05-03 02:08:00,44.8,48.9,30.06,North,357,4.0,6.0,44,0.17,,,0.25,meteohub,2013-05-03 07:08:00,
2013-05-03 02:13:00,44.8,48.9,30.06,North,5,6.0,6.0,44,0.17,,,0.25,meteohub,2013-05-03 07:13:00,
2013-05-03 02:18:00,44.8,48.7,30.06,North,6,4.0,6.0,44,0.13,,,0.25,meteohub,2013-05-03 07:18:00,
2013-05-03 02:23:00,44.8,48.7,30.04,NE,42,5.0,6.0,45,0.17,,,0.29,meteohub,2013-05-03 07:23:00,
2013-05-03 02:28:00,44.8,48.7,30.04,North,353,5.0,6.0,45,0.17,,,0.29,meteohub,2013-05-03 07:28:00,
2013-05-03 02:33:00,44.8,48.7,30.04,WSW,247,0.0,6.0,45,0.12,,,0.29,meteohub,2013-05-03 07:33:00,
2013-05-03 02:38:00,44.8,48.6,30.04,North,349,3.0,6.0,45,0.12,,,0.29,meteohub,2013-05-03 07:38:00,
2013-05-03 02:43:00,44.8,48.6,30.04,North,0,4.0,6.0,45,0.12,,,0.29,meteohub,2013-05-03 07:43:00,
2013-05-03 02:48:00,44.6,48.6,30.04,NNE,20,3.0,6.0,45,0.13,,,0.33,meteohub,2013-05-03 07:48:00,
2013-05-03 02:53:00,44.6,48.4,30.04,NW,307,3.0,6.0,45,0.13,,,0.33,meteohub,2013-05-03 07:53:00,
2013-05-03 02:58:00,44.6,48.4,30.04,North,0,3.0,6.0,45,0.08,,,0.33,meteohub,2013-05-03 07:58:00,
2013-05-03 03:03:00,44.4,48.4,30.04,NNW,333,4.0,6.0,46,0.08,,,0.33,meteohub,2013-05-03 08:03:00,
2013-05-03 03:08:00,44.4,48.2,30.01,NW,312,0.0,6.0,45,0.08,,,0.33,meteohub,2013-05-03 08:08:00,
2013-05-03 03:13:00,44.4,48.2,30.01,NNW,342,0.0,6.0,46,0.08,,,0.33,meteohub,2013-05-03 08:13:00,
2013-05-03 03:18:00,44.2,48.2,30.01,NNW,338,4.0,5.0,46,0.08,,,0.33,meteohub,2013-05-03 08:18:00,
2013-05-03 03:23:00,44.2,48.0,30.04,North,357,4.0,6.0,46,0.04,,,0.33,meteohub,2013-05-03 08:23:00,
2013-05-03 03:28:00,44.2,48.0,30.04,NNW,334,3.0,6.0,46,0.04,,,0.33,meteohub,2013-05-03 08:28:00,
2013-05-03 03:34:00,44.2,48.0,30.04,WNW,290,0.0,6.0,46,0.08,,,0.37,meteohub,2013-05-03 08:34:00,
2013-05-03 03:39:00,44.2,48.6,30.04,NNW,344,3.0,6.0,46,0.08,,,0.37,meteohub,2013-05-03 08:39:00,
2013-05-03 03:44:00,44.2,48.6,30.04,WNW,293,4.0,6.0,46,0.08,,,0.37,meteohub,2013-05-03 08:44:00,
2013-05-03 03:49:00,44.1,48.6,30.04,NW,325,3.0,6.0,46,0.04,,,0.37,meteohub,2013-05-03 08:49:00,
2013-05-03 03:54:00,44.1,48.6,30.04,North,0,4.0,5.0,46,0.08,,,0.41,meteohub,2013-05-03 08:54:00,
2013-05-03 03:59:00,43.9,48.4,30.04,West,271,4.0,5.0,46,0.08,,,0.41,meteohub,2013-05-03 08:59:00,
2013-05-03 04:04:00,43.9,48.4,30.04,NW,310,0.0,6.0,46,0.08,,,0.41,meteohub,2013-05-03 09:04:00,
2013-05-03 04:09:00,43.7,48.4,30.04,West,274,3.0,6.0,46,0.12,,,0.45,meteohub,2013-05-03 09:09:00,
2013-05-03 04:14:00,43.7,48.2,30.04,NW,317,4.0,6.0,46,0.12,,,0.45,meteohub,2013-05-03 09:14:00,
2013-05-03 04:19:00,43.7,48.2,30.04,North,0,3.0,4.0,46,0.12,,,0.45,meteohub,2013-05-03 09:19:00,
2013-05-03 04:24:00,43.7,48.2,30.01,NNW,346,3.0,6.0,46,0.12,,,0.45,meteohub,2013-05-03 09:24:00,
2013-05-03 04:29:00,43.7,48.2,30.01,NW,311,0.0,6.0,46,0.17,,,0.50,meteohub,2013-05-03 09:29:00,
2013-05-03 04:34:00,43.9,48.0,30.01,NNW,330,3.0,5.0,47,0.13,,,0.50,meteohub,2013-05-03 09:34:00,
2013-05-03 04:39:00,43.9,48.0,30.01,North,0,0.0,5.0,47,0.13,,,0.50,meteohub,2013-05-03 09:39:00,
2013-05-03 04:44:00,43.7,48.0,30.01,NW,319,2.0,5.0,46,0.13,,,0.50,meteohub,2013-05-03 09:44:00,
2013-05-03 04:49:00,43.5,47.8,30.01,WNW,291,3.0,5.0,46,0.08,,,0.50,meteohub,2013-05-03 09:49:00,
2013-05-03 04:55:00,43.3,47.8,30.01,WSW,245,4.0,5.0,46,0.08,,,0.50,meteohub,2013-05-03 09:55:00,
2013-05-03 05:00:00,43.2,47.8,30.01,WNW,295,4.0,5.0,46,0.08,,,0.50,meteohub,2013-05-03 10:00:00,
2013-05-03 05:05:00,43.2,47.8,30.01,West,279,2.0,6.0,47,0.04,,,0.50,meteohub,2013-05-03 10:05:00,
2013-05-03 05:10:00,43.0,47.7,30.01,WNW,303,5.0,6.0,46,0.04,,,0.50,meteohub,2013-05-03 10:10:00,
2013-05-03 05:15:00,42.8,47.7,30.01,NNW,348,0.0,6.0,46,0.08,,,0.54,meteohub,2013-05-03 10:15:00,
2013-05-03 05:20:00,42.8,47.7,30.01,NNW,330,3.0,6.0,47,0.04,,,0.54,meteohub,2013-05-03 10:20:00,
2013-05-03 05:25:00,42.6,47.7,30.01,NNW,335,8.0,8.0,47,0.04,,,0.54,meteohub,2013-05-03 10:25:00,
2013-05-03 05:30:00,42.4,47.5,30.01,WNW,296,4.0,9.0,47,0.04,,,0.54,meteohub,2013-05-03 10:30:00,
2013-05-03 05:35:00,42.3,47.5,30.01,NNW,345,3.0,9.0,47,0.04,,,0.54,meteohub,2013-05-03 10:35:00,
2013-05-03 05:40:00,42.3,47.5,30.01,NW,322,0.0,8.0,47,0.04,,,0.54,meteohub,2013-05-03 10:40:00,
2013-05-03 05:45:00,42.3,47.5,30.01,NW,325,4.0,6.0,48,0.04,,,0.54,meteohub,2013-05-03 10:45:00,
2013-05-03 05:50:00,42.3,47.3,30.01,NNW,339,3.0,6.0,48,0.04,,,0.54,meteohub,2013-05-03 10:50:00,
2013-05-03 05:55:00,42.3,47.3,30.01,North,0,3.0,6.0,48,0.04,,,0.54,meteohub,2013-05-03 10:55:00,
2013-05-03 06:00:00,42.3,47.3,30.01,WNW,287,3.0,6.0,48,0.04,,,0.54,meteohub,2013-05-03 11:00:00,
2013-05-03 06:05:00,42.4,47.1,30.01,WNW,294,0.0,6.0,48,0.04,,,0.54,meteohub,2013-05-03 11:05:00,
2013-05-03 06:10:00,42.4,47.1,30.01,NW,308,4.0,6.0,48,0.04,,,0.54,meteohub,2013-05-03 11:10:00,
2013-05-03 06:15:00,42.4,47.1,30.01,WNW,293,3.0,6.0,48,0.00,,,0.54,meteohub,2013-05-03 11:15:00,
2013-05-03 06:21:00,42.4,47.1,30.01,North,9,5.0,6.0,48,0.00,,,0.54,meteohub,2013-05-03 11:21:00,
2013-05-03 06:26:00,42.3,46.9,30.01,WNW,303,3.0,6.0,48,0.00,,,0.54,meteohub,2013-05-03 11:26:00,
2013-05-03 06:31:00,42.3,46.9,30.01,NNE,12,0.0,6.0,48,0.00,,,0.54,meteohub,2013-05-03 11:31:00,
2013-05-03 06:36:00,42.3,46.9,30.01,North,0,2.0,6.0,48,0.00,,,0.54,meteohub,2013-05-03 11:36:00,
2013-05-03 06:41:00,42.1,46.9,30.01,WNW,285,3.0,6.0,48,0.00,,,0.54,meteohub,2013-05-03 11:41:00,
2013-05-03 06:46:00,42.1,46.9,30.01,North,2,4.0,6.0,48,0.00,,,0.54,meteohub,2013-05-03 11:46:00,
2013-05-03 06:51:00,41.9,46.9,30.01,WNW,300,3.0,6.0,48,0.00,,,0.54,meteohub,2013-05-03 11:51:00,
2013-05-03 06:56:00,41.7,46.9,30.01,North,357,3.0,6.0,48,0.04,,,0.58,meteohub,2013-05-03 11:56:00,
2013-05-03 07:01:00,41.7,46.8,30.01,West,272,4.0,8.0,48,0.04,,,0.58,meteohub,2013-05-03 12:01:00,
2013-05-03 07:06:00,41.5,46.8,30.01,NW,306,5.0,8.0,48,0.04,,,0.58,meteohub,2013-05-03 12:06:00,
2013-05-03 07:11:00,41.5,46.8,29.98,NNW,327,4.0,8.0,48,0.04,,,0.58,meteohub,2013-05-03 12:11:00,
2013-05-03 07:16:00,41.5,47.3,29.98,NNW,327,2.0,8.0,48,0.04,,,0.58,meteohub,2013-05-03 12:16:00,
2013-05-03 07:21:00,41.5,47.3,29.98,NW,314,3.0,8.0,48,0.09,,,0.62,meteohub,2013-05-03 12:21:00,
2013-05-03 07:26:00,41.5,47.3,29.98,NW,325,3.0,8.0,49,0.09,,,0.62,meteohub,2013-05-03 12:26:00,
2013-05-03 07:31:00,41.5,47.3,29.98,NNW,333,4.0,6.0,49,0.13,,,0.66,meteohub,2013-05-03 12:31:00,
2013-05-03 07:36:00,41.4,47.3,29.98,NW,326,6.0,8.0,48,0.13,,,0.66,meteohub,2013-05-03 12:36:00,
2013-05-03 07:42:00,41.2,47.3,29.98,NW,326,5.0,8.0,49,0.17,,,0.70,meteohub,2013-05-03 12:42:00,
2013-05-03 07:47:00,41.4,47.3,29.98,NW,314,3.0,8.0,49,0.17,,,0.70,meteohub,2013-05-03 12:47:00,
2013-05-03 07:52:00,41.4,47.3,29.98,WNW,298,2.0,8.0,49,0.17,,,0.70,meteohub,2013-05-03 12:52:00,
2013-05-03 07:57:00,41.5,46.8,29.98,NNW,346,0.0,5.0,49,0.17,,,0.74,meteohub,2013-05-03 12:57:00,
2013-05-03 08:02:00,41.5,46.6,29.98,NNW,337,2.0,4.0,49,0.17,,,0.74,meteohub,2013-05-03 13:02:00,
2013-05-03 08:07:00,41.7,46.6,29.98,SW,218,4.0,4.0,49,0.17,,,0.74,meteohub,2013-05-03 13:07:00,
2013-05-03 08:12:00,41.7,46.6,29.98,NE,40,0.0,4.0,49,0.17,,,0.74,meteohub,2013-05-03 13:12:00,
2013-05-03 08:17:00,41.5,46.4,29.98,WSW,252,2.0,4.0,49,0.21,,,0.79,meteohub,2013-05-03 13:17:00,
2013-05-03 08:22:00,41.5,46.4,29.98,WNW,297,0.0,5.0,49,0.17,,,0.79,meteohub,2013-05-03 13:22:00,
2013-05-03 08:27:00,41.5,46.9,29.98,NNW,337,5.0,5.0,49,0.17,,,0.83,meteohub,2013-05-03 13:27:00,
2013-05-03 08:32:00,41.5,46.9,29.98,South,190,0.0,6.0,49,0.17,,,0.83,meteohub,2013-05-03 13:32:00,
2013-05-03 08:37:00,41.5,46.9,29.98,SSW,198,0.0,6.0,49,0.12,,,0.83,meteohub,2013-05-03 13:37:00,
2013-05-03 08:42:00,41.7,46.8,29.98,North,0,0.0,6.0,50,0.17,,,0.87,meteohub,2013-05-03 13:42:00,
2013-05-03 08:47:00,41.7,46.8,29.98,NW,316,2.0,4.0,50,0.17,,,0.87,meteohub,2013-05-03 13:47:00,
2013-05-03 08:52:00,41.7,46.8,29.98,WSW,258,4.0,6.0,49,0.17,,,0.87,meteohub,2013-05-03 13:52:00,
2013-05-03 08:57:00,41.7,46.8,29.98,ENE,78,4.0,6.0,49,0.17,,,0.91,meteohub,2013-05-03 13:57:00,
2013-05-03 09:03:00,41.7,46.8,29.98,SW,235,0.0,6.0,49,0.17,,,0.91,meteohub,2013-05-03 14:03:00,
2013-05-03 09:08:00,41.7,46.8,29.98,SW,217,3.0,6.0,50,0.17,,,0.91,meteohub,2013-05-03 14:08:00,
2013-05-03 09:13:00,41.7,46.6,29.98,SW,222,0.0,6.0,50,0.17,,,0.91,meteohub,2013-05-03 14:13:00,
2013-05-03 09:18:00,41.7,46.6,29.98,West,268,5.0,6.0,50,0.12,,,0.91,meteohub,2013-05-03 14:18:00,
2013-05-03 09:23:00,41.7,46.6,29.98,SW,235,4.0,5.0,49,0.12,,,0.91,meteohub,2013-05-03 14:23:00,
2013-05-03 09:28:00,41.5,46.6,29.98,WNW,282,5.0,6.0,49,0.08,,,0.91,meteohub,2013-05-03 14:28:00,
2013-05-03 09:33:00,41.7,46.6,29.98,NW,315,3.0,6.0,50,0.08,,,0.91,meteohub,2013-05-03 14:33:00,
2013-05-03 09:38:00,41.9,46.4,29.98,WSW,255,4.0,6.0,51,0.04,,,0.91,meteohub,2013-05-03 14:38:00,
2013-05-03 09:43:00,42.1,46.4,29.98,NNE,14,3.0,6.0,51,0.04,,,0.91,meteohub,2013-05-03 14:43:00,
2013-05-03 09:48:00,42.1,46.4,29.98,NW,308,3.0,6.0,50,0.04,,,0.91,meteohub,2013-05-03 14:48:00,
2013-05-03 09:53:00,41.9,46.4,29.98,WNW,303,4.0,6.0,49,0.00,,,0.91,meteohub,2013-05-03 14:53:00,
2013-05-03 09:58:00,41.7,46.4,29.98,West,272,3.0,6.0,50,0.00,,,0.91,meteohub,2013-05-03 14:58:00,
2013-05-03 10:03:00,41.7,46.2,29.98,NNW,327,3.0,6.0,50,0.00,,,0.91,meteohub,2013-05-03 15:03:00,
2013-05-03 10:08:00,41.7,46.2,29.95,NNW,341,6.0,6.0,50,0.00,,,0.91,meteohub,2013-05-03 15:08:00,
2013-05-03 10:13:00,41.7,46.2,29.95,North,353,3.0,6.0,50,0.00,,,0.91,meteohub,2013-05-03 15:13:00,
2013-05-03 10:18:00,41.5,46.2,29.95,NW,326,5.0,6.0,50,0.00,,,0.91,meteohub,2013-05-03 15:18:00,
2013-05-03 10:23:00,41.5,46.2,29.98,North,357,4.0,8.0,50,0.00,,,0.91,meteohub,2013-05-03 15:23:00,
2013-05-03 10:29:00,41.5,46.0,29.98,NW,309,2.0,8.0,50,0.00,,,0.91,meteohub,2013-05-03 15:29:00,
2013-05-03 10:34:00,41.5,46.0,29.98,North,2,4.0,8.0,50,0.04,,,0.95,meteohub,2013-05-03 15:34:00,
2013-05-03 10:39:00,41.5,46.0,29.95,NW,323,4.0,6.0,50,0.04,,,0.95,meteohub,2013-05-03 15:39:00,
2013-05-03 10:44:00,41.4,46.0,29.95,NNW,339,4.0,6.0,50,0.08,,,0.99,meteohub,2013-05-03 15:44:00,
2013-05-03 10:49:00,41.4,46.0,29.95,WNW,292,5.0,6.0,50,0.08,,,0.99,meteohub,2013-05-03 15:49:00,
2013-05-03 10:54:00,41.5,45.9,29.95,WNW,295,4.0,6.0,51,0.08,,,0.99,meteohub,2013-05-03 15:54:00,
2013-05-03 10:59:00,41.5,45.9,29.95,NW,322,3.0,6.0,51,0.08,,,0.99,meteohub,2013-05-03 15:59:00,
2013-05-03 11:04:00,41.5,45.9,29.95,NE,49,3.0,6.0,51,0.13,,,1.04,meteohub,2013-05-03 16:04:00,
2013-05-03 11:09:00,41.5,46.8,29.95,North,7,4.0,6.0,51,0.13,,,1.04,meteohub,2013-05-03 16:09:00,
2013-05-03 11:14:00,41.7,46.8,29.95,West,270,4.0,6.0,51,0.13,,,1.04,meteohub,2013-05-03 16:14:00,
2013-05-03 11:19:00,41.7,46.2,29.95,North,357,5.0,6.0,51,0.13,,,1.04,meteohub,2013-05-03 16:19:00,
2013-05-03 11:24:00,41.7,46.2,29.95,NNW,345,0.0,6.0,51,0.13,,,1.04,meteohub,2013-05-03 16:24:00,
2013-05-03 11:29:00,42.1,46.0,29.95,NNW,341,4.0,6.0,52,0.08,,,1.04,meteohub,2013-05-03 16:29:00,
2013-05-03 11:34:00,42.1,46.0,29.95,NW,324,3.0,5.0,52,0.08,,,1.04,meteohub,2013-05-03 16:34:00,
2013-05-03 11:39:00,42.3,45.9,29.95,NW,324,2.0,6.0,52,0.08,,,1.04,meteohub,2013-05-03 16:39:00,
2013-05-03 11:45:00,42.3,45.9,29.95,WSW,250,5.0,6.0,52,0.08,,,1.07,meteohub,2013-05-03 16:45:00,
2013-05-03 11:50:00,42.3,45.9,29.95,NNW,328,3.0,6.0,52,0.08,,,1.07,meteohub,2013-05-03 16:50:00,
2013-05-03 11:55:00,42.3,45.7,29.95,NNW,330,0.0,6.0,52,0.04,,,1.07,meteohub,2013-05-03 16:55:00,
2013-05-03 12:00:00,42.3,45.7,29.95,NW,307,3.0,6.0,52,0.04,,,1.07,meteohub,2013-05-03 17:00:00,
2013-05-03 12:05:00,42.4,46.8,29.95,NNW,338,0.0,6.0,52,0.04,,,1.07,meteohub,2013-05-03 17:05:00,
2013-05-03 12:10:00,42.6,46.2,29.92,NNW,329,0.0,6.0,53,0.04,,,1.07,meteohub,2013-05-03 17:10:00,
2013-05-03 12:15:00,42.4,46.0,29.92,North,357,3.0,5.0,52,0.04,,,1.07,meteohub,2013-05-03 17:15:00,
2013-05-03 12:20:00,42.4,46.0,29.92,NNW,337,6.0,6.0,52,0.04,,,1.07,meteohub,2013-05-03 17:20:00,
2013-05-03 12:25:00,42.6,45.9,29.92,NW,319,3.0,6.0,52,0.04,,,1.07,meteohub,2013-05-03 17:25:00,
2013-05-03 12:30:00,42.6,45.9,29.92,North,357,3.0,6.0,53,0.04,,,1.07,meteohub,2013-05-03 17:30:00,
2013-05-03 12:35:00,42.8,46.8,29.92,NW,312,0.0,6.0,52,0.04,,,1.07,meteohub,2013-05-03 17:35:00,
2013-05-03 12:40:00,43.0,47.3,29.92,North,0,3.0,6.0,52,0.00,,,1.07,meteohub,2013-05-03 17:40:00,
2013-05-03 12:45:00,43.2,46.6,29.92,North,353,4.0,6.0,53,0.00,,,1.07,meteohub,2013-05-03 17:45:00,
2013-05-03 12:50:00,43.0,46.6,29.92,WNW,290,0.0,6.0,51,0.00,,,1.07,meteohub,2013-05-03 17:50:00,
2013-05-03 12:56:00,43.0,46.4,29.92,WNW,302,4.0,6.0,51,0.00,,,1.07,meteohub,2013-05-03 17:56:00,
2013-05-03 13:01:00,43.0,46.2,29.92,North,0,4.0,6.0,51,0.04,,,1.12,meteohub,2013-05-03 18:01:00,
2013-05-03 13:06:00,42.8,46.2,29.92,WNW,292,3.0,6.0,51,0.04,,,1.12,meteohub,2013-05-03 18:06:00,
2013-05-03 13:11:00,42.8,46.0,29.92,NNE,23,3.0,6.0,52,0.08,,,1.16,meteohub,2013-05-03 18:11:00,
2013-05-03 13:16:00,43.0,47.1,29.92,NE,38,0.0,6.0,52,0.08,,,1.16,meteohub,2013-05-03 18:16:00,
2013-05-03 13:21:00,43.0,47.5,29.92,NNW,348,0.0,4.0,52,0.13,,,1.20,meteohub,2013-05-03 18:21:00,
2013-05-03 13:26:00,43.2,46.8,29.89,WNW,300,3.0,4.0,53,0.13,,,1.20,meteohub,2013-05-03 18:26:00,
2013-05-03 13:31:00,43.3,46.6,29.89,NE,35,3.0,4.0,53,0.13,,,1.20,meteohub,2013-05-03 18:31:00,
2013-05-03 13:36:00,43.2,46.6,29.89,North,353,3.0,6.0,52,0.17,,,1.24,meteohub,2013-05-03 18:36:00,
2013-05-03 13:41:00,43.2,46.4,29.89,North,353,3.0,6.0,52,0.17,,,1.24,meteohub,2013-05-03 18:41:00,
2013-05-03 13:46:00,43.3,46.4,29.89,NNW,339,4.0,6.0,52,0.21,,,1.28,meteohub,2013-05-03 18:46:00,
2013-05-03 13:51:00,43.3,47.1,29.89,West,272,3.0,6.0,52,0.21,,,1.28,meteohub,2013-05-03 18:51:00,
2013-05-03 13:56:00,43.7,46.8,29.89,West,266,4.0,6.0,54,0.21,,,1.28,meteohub,2013-05-03 18:56:00,
2013-05-03 14:01:00,43.7,46.6,29.89,NNW,339,4.0,6.0,53,0.21,,,1.33,meteohub,2013-05-03 19:01:00,
2013-05-03 14:06:00,43.7,46.6,29.89,WNW,303,0.0,6.0,53,0.17,,,1.33,meteohub,2013-05-03 19:06:00,
2013-05-03 14:11:00,44.1,46.4,29.89,WNW,290,0.0,6.0,54,0.17,,,1.33,meteohub,2013-05-03 19:11:00,
2013-05-03 14:16:00,44.2,46.2,29.89,NW,325,0.0,5.0,54,0.17,,,1.33,meteohub,2013-05-03 19:16:00,
2013-05-03 14:22:00,44.2,47.3,29.89,NE,35,3.0,5.0,52,0.13,,,1.33,meteohub,2013-05-03 19:22:00,
2013-05-03 14:27:00,44.1,47.7,29.89,SSW,207,3.0,6.0,52,0.17,,,1.37,meteohub,2013-05-03 19:27:00,
2013-05-03 14:32:00,43.9,46.9,29.89,WNW,290,4.0,6.0,52,0.17,,,1.37,meteohub,2013-05-03 19:32:00,
2013-05-03 14:37:00,44.1,46.9,29.89,North,353,3.0,5.0,53,0.13,,,1.37,meteohub,2013-05-03 19:37:00,
2013-05-03 14:42:00,44.1,46.8,29.89,WNW,299,0.0,5.0,53,0.17,,,1.41,meteohub,2013-05-03 19:42:00,
2013-05-03 14:47:00,44.1,46.6,29.89,SSW,209,4.0,6.0,54,0.13,,,1.41,meteohub,2013-05-03 19:47:00,
2013-05-03 14:52:00,44.1,46.6,29.89,NNW,330,4.0,6.0,53,0.13,,,1.41,meteohub,2013-05-03 19:52:00,
2013-05-03 14:57:00,44.1,46.8,29.89,SSW,192,2.0,8.0,53,0.08,,,1.41,meteohub,2013-05-03 19:57:00,
2013-05-03 15:02:00,44.2,46.9,29.89,West,273,6.0,8.0,53,0.12,,,1.45,meteohub,2013-05-03 20:02:00,
2013-05-03 15:07:00,44.1,46.8,29.89,NNW,346,4.0,8.0,52,0.12,,,1.45,meteohub,2013-05-03 20:07:00,
2013-05-03 15:12:00,44.1,46.8,29.89,WNW,302,3.0,6.0,53,0.17,,,1.49,meteohub,2013-05-03 20:12:00,
2013-05-03 15:17:00,43.7,46.6,29.89,North,0,0.0,6.0,51,0.17,,,1.49,meteohub,2013-05-03 20:17:00,
2013-05-03 15:22:00,43.7,46.4,29.86,WNW,303,6.0,6.0,52,0.17,,,1.53,meteohub,2013-05-03 20:22:00,
2013-05-03 15:27:00,43.5,46.9,29.86,North,350,4.0,6.0,52,0.17,,,1.53,meteohub,2013-05-03 20:27:00,
2013-05-03 15:32:00,43.3,46.9,29.86,NNW,330,0.0,6.0,52,0.17,,,1.53,meteohub,2013-05-03 20:32:00,
2013-05-03 15:37:00,43.5,46.8,29.86,WSW,247,4.0,6.0,53,0.21,,,1.57,meteohub,2013-05-03 20:37:00,
2013-05-03 15:42:00,43.5,46.6,29.86,WNW,293,5.0,7.0,53,0.17,,,1.57,meteohub,2013-05-03 20:42:00,
2013-05-03 15:48:00,43.3,46.6,29.86,NW,321,0.0,7.0,53,0.20,,,1.61,meteohub,2013-05-03 20:48:00,
2013-05-03 15:53:00,43.3,46.6,29.86,WSW,252,3.0,7.0,53,0.25,,,1.66,meteohub,2013-05-03 20:53:00,
2013-05-03 15:58:00,43.3,47.8,29.86,North,357,3.0,6.0,52,0.29,,,1.70,meteohub,2013-05-03 20:58:00,
2013-05-03 16:03:00,43.3,47.5,29.86,NNW,329,3.0,6.0,52,0.25,,,1.70,meteohub,2013-05-03 21:03:00,
2013-05-03 16:08:00,43.3,47.5,29.86,NNW,341,3.0,6.0,53,0.29,,,1.74,meteohub,2013-05-03 21:08:00,
2013-05-03 16:13:00,43.3,47.3,29.86,NW,325,3.0,6.0,53,0.25,,,1.74,meteohub,2013-05-03 21:13:00,
2013-05-03 16:18:00,43.3,47.1,29.86,West,266,4.0,6.0,52,0.25,,,1.74,meteohub,2013-05-03 21:18:00,
2013-05-03 16:23:00,43.2,47.1,29.86,WNW,300,0.0,6.0,52,0.21,,,1.74,meteohub,2013-05-03 21:23:00,
2013-05-03 16:28:00,43.2,47.3,29.86,NW,320,0.0,6.0,53,0.25,,,1.78,meteohub,2013-05-03 21:28:00,
2013-05-03 16:33:00,43.2,47.7,29.86,NNW,338,3.0,6.0,53,0.25,,,1.82,meteohub,2013-05-03 21:33:00,
2013-05-03 16:38:00,43.2,47.5,29.86,North,8,3.0,5.0,53,0.25,,,1.82,meteohub,2013-05-03 21:38:00,
2013-05-03 16:43:00,43.3,47.5,29.86,North,11,4.0,6.0,53,0.25,,,1.86,meteohub,2013-05-03 21:43:00,
2013-05-03 16:48:00,43.3,47.3,29.86,NNW,329,0.0,6.0,53,0.20,,,1.86,meteohub,2013-05-03 21:48:00,
2013-05-03 16:53:00,43.5,47.3,29.86,NW,325,3.0,6.0,53,0.20,,,1.86,meteohub,2013-05-03 21:53:00,
2013-05-03 16:59:00,43.5,47.7,29.86,West,259,3.0,6.0,54,0.17,,,1.86,meteohub,2013-05-03 21:59:00,
2013-05-03 17:04:00,43.5,47.7,29.86,West,273,3.0,5.0,53,0.17,,,1.91,meteohub,2013-05-03 22:04:00,
2013-05-03 17:09:00,43.5,47.7,29.83,West,275,4.0,5.0,52,0.21,,,1.95,meteohub,2013-05-03 22:09:00,
2013-05-03 17:14:00,43.5,47.5,29.83,SSW,213,3.0,5.0,53,0.21,,,1.95,meteohub,2013-05-03 22:14:00,
2013-05-03 17:19:00,43.5,47.5,29.83,West,277,2.0,5.0,54,0.25,,,1.99,meteohub,2013-05-03 22:19:00,
2013-05-03 17:24:00,43.7,47.5,29.83,NW,322,3.0,5.0,54,0.21,,,1.99,meteohub,2013-05-03 22:24:00,
2013-05-03 17:29:00,43.5,48.0,29.83,NW,305,4.0,4.0,53,0.17,,,1.99,meteohub,2013-05-03 22:29:00,
2013-05-03 17:34:00,43.3,48.6,29.83,SSW,193,3.0,5.0,52,0.17,,,1.99,meteohub,2013-05-03 22:34:00,
2013-05-03 17:39:00,43.3,48.0,29.86,SSW,211,4.0,5.0,52,0.17,,,1.99,meteohub,2013-05-03 22:39:00,
2013-05-03 17:44:00,43.3,48.0,29.86,South,177,0.0,5.0,53,0.13,,,1.99,meteohub,2013-05-03 22:44:00,
2013-05-03 17:49:00,43.2,48.0,29.86,SW,225,4.0,5.0,53,0.17,,,2.03,meteohub,2013-05-03 22:49:00,
2013-05-03 17:54:00,43.0,48.2,29.86,NW,325,3.0,6.0,52,0.17,,,2.03,meteohub,2013-05-03 22:54:00,
2013-05-03 17:59:00,42.8,49.8,29.86,NW,326,3.0,6.0,52,0.13,,,2.03,meteohub,2013-05-03 22:59:00,
2013-05-03 18:04:00,42.8,49.1,29.86,West,273,5.0,6.0,53,0.17,,,2.07,meteohub,2013-05-03 23:04:00,
2013-05-03 18:09:00,42.6,48.9,29.83,NNW,328,5.0,6.0,53,0.12,,,2.07,meteohub,2013-05-03 23:09:00,
2013-05-03 18:14:00,42.4,48.7,29.83,NW,324,0.0,6.0,52,0.17,,,2.15,meteohub,2013-05-03 23:14:00,
2013-05-03 18:19:00,42.3,48.6,29.83,West,270,3.0,6.0,53,0.21,,,2.20,meteohub,2013-05-03 23:19:00,
2013-05-03 18:25:00,42.3,48.4,29.86,NW,310,5.0,5.0,53,0.25,,,2.24,meteohub,2013-05-03 23:25:00,
2013-05-03 18:30:00,42.3,48.2,29.86,WNW,302,4.0,5.0,54,0.33,,,2.32,meteohub,2013-05-03 23:30:00,
2013-05-03 18:35:00,42.3,48.2,29.86,NW,324,2.0,5.0,54,0.33,,,2.32,meteohub,2013-05-03 23:35:00,
2013-05-03 18:40:00,42.3,48.7,29.86,NNW,342,0.0,4.0,54,0.29,,,2.32,meteohub,2013-05-03 23:40:00,
2013-05-03 18:45:00,42.3,48.7,29.86,North,357,3.0,6.0,54,0.33,,,2.36,meteohub,2013-05-03 23:45:00,
2013-05-03 18:50:00,42.3,48.6,29.86,North,357,4.0,6.0,53,0.33,,,2.36,meteohub,2013-05-03 23:50:00,
2013-05-03 18:55:00,42.1,48.4,29.83,NNW,346,3.0,6.0,53,0.33,,,2.40,meteohub,2013-05-03 23:55:00,
2013-05-03 19:00:00,42.1,48.2,29.83,NE,52,3.0,6.0,54,0.33,,,2.40,meteohub,2013-05-04 00:00:00,
2013-05-03 19:05:00,42.1,48.0,29.83,NNW,348,3.0,6.0,54,0.29,,,2.40,meteohub,2013-05-04 00:05:00,
2013-05-03 19:10:00,42.1,48.0,29.83,North,357,3.0,5.0,54,0.25,,,2.40,meteohub,2013-05-04 00:10:00,
2013-05-03 19:16:00,42.1,48.0,29.83,NW,311,3.0,6.0,54,0.25,,,2.44,meteohub,2013-05-04 00:16:00,
2013-05-03 19:21:00,42.1,48.6,29.83,NNW,331,0.0,6.0,54,0.21,,,2.44,meteohub,2013-05-04 00:21:00,
2013-05-03 19:26:00,42.1,48.4,29.83,NW,318,3.0,6.0,54,0.17,,,2.44,meteohub,2013-05-04 00:26:00,
2013-05-03 19:31:00,42.1,48.4,29.83,WNW,294,3.0,5.0,54,0.13,,,2.44,meteohub,2013-05-04 00:31:00,
2013-05-03 19:36:00,42.1,47.7,29.83,NW,313,2.0,5.0,54,0.17,,,2.48,meteohub,2013-05-04 00:36:00,
2013-05-03 19:41:00,42.1,48.2,29.86,NW,315,4.0,5.0,54,0.12,,,2.48,meteohub,2013-05-04 00:41:00,
2013-05-03 19:46:00,42.1,48.2,29.86,South,176,0.0,5.0,54,0.17,,,2.53,meteohub,2013-05-04 00:46:00,
2013-05-03 19:51:00,42.1,48.0,29.86,NNW,336,3.0,5.0,55,0.17,,,2.53,meteohub,2013-05-04 00:51:00,
2013-05-03 19:56:00,42.1,48.6,29.83,WNW,303,3.0,5.0,55,0.13,,,2.53,meteohub,2013-05-04 00:56:00,
2013-05-03 20:01:00,42.1,48.6,29.83,NE,51,0.0,4.0,55,0.17,,,2.57,meteohub,2013-05-04 01:01:00,
2013-05-03 20:06:00,42.1,47.8,29.83,ESE,114,0.0,4.0,55,0.17,,,2.57,meteohub,2013-05-04 01:06:00,
2013-05-03 20:11:00,42.1,47.8,29.86,WSW,246,3.0,4.0,55,0.17,,,2.57,meteohub,2013-05-04 01:11:00,
2013-05-03 20:16:00,42.1,47.7,29.86,NW,317,2.0,4.0,54,0.12,,,2.57,meteohub,2013-05-04 01:16:00,
2013-05-03 20:21:00,42.1,47.7,29.86,SW,231,4.0,4.0,55,0.17,,,2.61,meteohub,2013-05-04 01:21:00,
2013-05-03 20:26:00,42.1,47.7,29.83,NNW,340,0.0,6.0,55,0.17,,,2.61,meteohub,2013-05-04 01:26:00,
2013-05-03 20:31:00,42.1,47.5,29.83,WNW,301,0.0,6.0,55,0.13,,,2.61,meteohub,2013-05-04 01:31:00,
2013-05-03 20:36:00,41.9,48.2,29.83,WNW,303,0.0,6.0,55,0.17,,,2.65,meteohub,2013-05-04 01:36:00,
2013-05-03 20:42:00,41.9,48.0,29.83,SE,146,2.0,4.0,55,0.13,,,2.65,meteohub,2013-05-04 01:42:00,
2013-05-03 20:47:00,41.9,48.0,29.83,NNW,333,3.0,4.0,55,0.13,,,2.65,meteohub,2013-05-04 01:47:00,
2013-05-03 20:52:00,41.9,48.6,29.86,South,173,0.0,4.0,55,0.13,,,2.65,meteohub,2013-05-04 01:52:00,
2013-05-03 20:57:00,41.9,48.4,29.86,SSW,204,0.0,3.0,55,0.13,,,2.65,meteohub,2013-05-04 01:57:00,
2013-05-03 21:02:00,42.1,47.8,29.86,WSW,241,0.0,3.0,55,0.13,,,2.69,meteohub,2013-05-04 02:02:00,
2013-05-03 21:07:00,42.1,47.7,29.86,SSW,206,0.0,4.0,55,0.13,,,2.69,meteohub,2013-05-04 02:07:00,
2013-05-03 21:12:00,42.1,47.7,29.86,SSW,206,0.0,4.0,55,0.13,,,2.69,meteohub,2013-05-04 02:12:00,
2013-05-03 21:17:00,42.1,48.0,29.86,SSE,156,0.0,4.0,56,0.08,,,2.69,meteohub,2013-05-04 02:17:00,
2013-05-03 21:22:00,42.1,48.0,29.86,SSW,211,0.0,3.0,55,0.08,,,2.69,meteohub,2013-05-04 02:22:00,
2013-05-03 21:27:00,42.1,48.0,29.86,SSW,201,3.0,3.0,55,0.08,,,2.69,meteohub,2013-05-04 02:27:00,
2013-05-03 21:32:00,42.1,48.0,29.86,SSW,208,5.0,6.0,55,0.13,,,2.74,meteohub,2013-05-04 02:32:00,
2013-05-03 21:38:00,42.1,47.8,29.86,SW,214,0.0,6.0,55,0.08,,,2.74,meteohub,2013-05-04 02:38:00,
2013-05-03 21:43:00,41.9,47.8,29.86,SW,236,3.0,5.0,55,0.08,,,2.74,meteohub,2013-05-04 02:43:00,
2013-05-03 21:48:00,41.9,48.4,29.86,South,182,3.0,5.0,55,0.08,,,2.74,meteohub,2013-05-04 02:48:00,
2013-05-03 21:53:00,41.9,48.2,29.86,South,183,4.0,5.0,55,0.08,,,2.74,meteohub,2013-05-04 02:53:00,
2013-05-03 21:58:00,41.9,47.7,29.86,WNW,293,5.0,5.0,55,0.08,,,2.74,meteohub,2013-05-04 02:58:00,
2013-05-03 22:03:00,41.7,47.5,29.86,SW,216,2.0,6.0,55,0.04,,,2.74,meteohub,2013-05-04 03:03:00,
2013-05-03 22:08:00,41.7,47.5,29.86,SSW,199,2.0,6.0,55,0.08,,,2.78,meteohub,2013-05-04 03:08:00,
2013-05-03 22:13:00,41.7,47.3,29.86,SSW,199,4.0,6.0,56,0.08,,,2.78,meteohub,2013-05-04 03:13:00,
2013-05-03 22:18:00,41.9,48.2,29.86,SSW,202,0.0,6.0,56,0.08,,,2.78,meteohub,2013-05-04 03:18:00,
2013-05-03 22:23:00,42.1,48.7,29.86,SSW,206,0.0,4.0,56,0.08,,,2.78,meteohub,2013-05-04 03:23:00,
2013-05-03 22:28:00,42.1,48.0,29.86,SSW,211,0.0,4.0,56,0.04,,,2.78,meteohub,2013-05-04 03:28:00,
2013-05-03 22:33:00,42.1,47.8,29.86,WSW,256,0.0,3.0,56,0.04,,,2.78,meteohub,2013-05-04 03:33:00,
2013-05-03 22:38:00,42.1,47.7,29.86,SSW,205,0.0,4.0,56,0.04,,,2.78,meteohub,2013-05-04 03:38:00,
2013-05-03 22:43:00,42.1,47.7,29.86,WSW,253,4.0,4.0,56,0.04,,,2.78,meteohub,2013-05-04 03:43:00,
2013-05-03 22:48:00,42.1,47.5,29.86,SSE,164,0.0,6.0,55,0.04,,,2.78,meteohub,2013-05-04 03:48:00,
2013-05-03 22:53:00,42.1,47.5,29.86,SW,222,2.0,6.0,55,0.04,,,2.78,meteohub,2013-05-04 03:53:00,
2013-05-03 22:59:00,42.1,47.5,29.86,SW,224,0.0,6.0,56,0.04,,,2.78,meteohub,2013-05-04 03:59:00,
2013-05-03 23:01:00,42.1,48.4,29.86,SSW,202,0.0,4.0,56,0.04,,,2.78,meteohub,2013-05-04 04:01:00,
2013-05-03 23:02:00,42.1,48.4,29.86,SSW,203,0.0,4.0,56,0.04,,,2.78,meteohub,2013-05-04 04:02:00,
2013-05-03 23:03:00,42.1,47.8,29.86,SW,226,0.0,4.0,56,0.04,,,2.78,meteohub,2013-05-04 04:03:00,
2013-05-03 23:07:00,42.1,47.8,29.86,WSW,238,0.0,4.0,56,0.00,,,2.78,meteohub,2013-05-04 04:07:00,
2013-05-03 23:12:00,42.1,47.7,29.86,South,187,0.0,4.0,56,0.00,,,2.78,meteohub,2013-05-04 04:12:00,
2013-05-03 23:17:00,42.1,47.7,29.86,South,169,0.0,4.0,56,0.00,,,2.78,meteohub,2013-05-04 04:17:00,
2013-05-03 23:22:00,42.1,47.5,29.86,SW,227,0.0,0.0,56,0.00,,,2.78,meteohub,2013-05-04 04:22:00,
2013-05-03 23:27:00,42.1,47.5,29.86,SW,217,0.0,3.0,57,0.00,,,2.78,meteohub,2013-05-04 04:27:00,
2013-05-03 23:32:00,42.1,47.3,29.86,SW,214,0.0,3.0,57,0.00,,,2.78,meteohub,2013-05-04 04:32:00,
2013-05-03 23:37:00,42.1,47.5,29.86,SSW,212,2.0,4.0,56,0.00,,,2.78,meteohub,2013-05-04 04:37:00,
2013-05-03 23:42:00,41.9,47.7,29.86,South,170,0.0,4.0,55,0.00,,,2.78,meteohub,2013-05-04 04:42:00,
2013-05-03 23:47:00,41.7,47.7,29.86,SE,131,0.0,4.0,55,0.00,,,2.78,meteohub,2013-05-04 04:47:00,
2013-05-03 23:52:00,41.7,47.5,29.89,SE,144,0.0,3.0,56,0.00,,,2.78,meteohub,2013-05-04 04:52:00,
2013-05-03 23:57:00,41.7,47.3,29.89,SSW,205,0.0,3.0,56,0.00,,,2.78,meteohub,2013-05-04 04:57:00,